West Palm Beach, FL

3:20 PM EDT on October 16, 2019 (GMT -0400)
Palm Beach International

Weather History for KPBI - May, 2019

Change the Weather History Date:

Tuesday, May 14, 2019

  Actual Average Record
Temperature  
Mean Temperature 82 °F 78 °F  
Max Temperature 90 °F 86 °F 99 °F (1922)
Min Temperature 73 °F 71 °F 56 °F (1960)
Degree Days  
Heating Degree Days 0 0  
Month to date heating degree days 0 0  
Since 1 July heating degree days 144 233  
Cooling Degree Days 17 13  
Month to date cooling degree days 203 168  
Year to date cooling degree days 1128 863  
Growing Degree Days 32 (Base 50)    
Moisture  
Dew Point 72 °F    
Average Humidity 78    
Maximum Humidity 100    
Minimum Humidity 56    
Precipitation  
Precipitation 0.00 in 0.13 in 2.18 in (1964)
Month to date precipitation 5.26 1.38  
Year to date precipitation 20.98 15.58  
Snow  
Snow 0.00 in - - ()
Month to date snowfall 0.0  
Since 1 July snowfall 0.0  
Snow Depth 0.00 in    
Sea Level Pressure  
Sea Level Pressure 29.93 in    
Wind  
Wind Speed 8 mph (WSW)    
Max Wind Speed 21 mph    
Max Gust Speed 25 mph    
Visibility 10 miles    
Events      
T = Trace of Precipitation, MM = Missing Value Source: NWS Daily Summary

Daily Weather History Graph

Daily Weather History Graph

Search for Another Location

Airport or City:

Astronomy

May. 14, 2019 Rise Set
Actual Time 6:33 AM EDT 8:00 PM EDT
Civil Twilight 6:08 AM EDT 8:25 PM EDT
Nautical Twilight 5:38 AM EDT 8:55 PM EDT
Astronomical Twilight 5:07 AM EDT 9:26 PM EDT
Moon 3:53 PM EDT (5/14) 3:49 AM EDT (5/14)
Length of Visible Light 14h 16m
Length of Day
13h 26m
Waxing Gibbous, 79% of the Moon is Illuminated
May 14
Waxing Gibbous
May 18
Full
May 26
Last Quarter
Jun 3
New
Jun 10
First Quarter

Hourly Weather History & Observations

Time (EDT) Temp. Heat Index Dew Point Humidity Pressure Visibility Wind Dir Wind Speed Gust Speed Precip Events Conditions
12:53 AM 73.9 °F - 72.0 °F 93% 29.93 in 10.0 mi WNW 3.5 mph - N/A   Mostly Cloudy
1:53 AM 73.9 °F - 72.0 °F 93% 29.92 in 10.0 mi Calm Calm - N/A   Scattered Clouds
2:39 AM 75.0 °F - 72.0 °F 90% 29.92 in 10.0 mi SSW 4.6 mph - N/A   Mostly Cloudy
2:53 AM 75.0 °F - 72.0 °F 90% 29.92 in 10.0 mi SW 4.6 mph - N/A   Mostly Cloudy
3:00 AM 75.0 °F - 72.0 °F 90% 29.92 in 10.0 mi SSW 5.8 mph - N/A   Scattered Clouds
3:53 AM 73.9 °F - 72.0 °F 93% 29.91 in 10.0 mi South 5.8 mph - N/A   Scattered Clouds
4:53 AM 73.9 °F - 72.0 °F 93% 29.92 in 10.0 mi SSW 4.6 mph - N/A   Partly Cloudy
5:53 AM 73.0 °F - 71.1 °F 93% 29.92 in 10.0 mi SW 3.5 mph - N/A   Partly Cloudy
6:53 AM 73.0 °F - 71.1 °F 93% 29.94 in 10.0 mi SW 4.6 mph - N/A   Scattered Clouds
7:53 AM 73.9 °F - 73.0 °F 97% 29.96 in 10.0 mi WSW 6.9 mph - N/A   Partly Cloudy
8:53 AM 75.9 °F - 73.9 °F 94% 29.95 in 10.0 mi WSW 5.8 mph - N/A   Scattered Clouds
9:53 AM 75.9 °F - 73.9 °F 94% 29.96 in 10.0 mi West 8.1 mph - N/A   Scattered Clouds
10:53 AM 82.9 °F 87.5 °F 71.1 °F 67% 29.97 in 10.0 mi WSW 11.5 mph - N/A   Scattered Clouds
11:53 AM 84.9 °F 90.1 °F 71.1 °F 63% 29.97 in 10.0 mi WSW 11.5 mph - N/A   Mostly Cloudy
12:53 PM 87.1 °F 92.8 °F 71.1 °F 59% 29.95 in 10.0 mi WSW 10.4 mph 18.4 mph N/A   Mostly Cloudy
1:53 PM 90.0 °F 96.9 °F 72.0 °F 55% 29.93 in 10.0 mi WNW 17.3 mph - N/A   Mostly Cloudy
2:53 PM 90.0 °F 96.9 °F 72.0 °F 55% 29.91 in 10.0 mi West 13.8 mph - N/A   Mostly Cloudy
3:53 PM 90.0 °F 96.9 °F 72.0 °F 55% 29.90 in 10.0 mi West 12.7 mph - N/A   Mostly Cloudy
4:53 PM 88.0 °F 93.8 °F 71.1 °F 57% 29.90 in 10.0 mi West 17.3 mph - N/A   Mostly Cloudy
5:53 PM 84.9 °F 88.8 °F 69.1 °F 59% 29.90 in 10.0 mi West 16.1 mph - N/A   Mostly Cloudy
6:53 PM 82.9 °F 87.0 °F 70.0 °F 65% 29.90 in 10.0 mi West 9.2 mph - N/A   Mostly Cloudy
7:53 PM 82.0 °F 86.3 °F 71.1 °F 69% 29.92 in 10.0 mi WNW 10.4 mph - N/A   Mostly Cloudy
8:53 PM 81.0 °F 84.9 °F 71.1 °F 72% 29.94 in 10.0 mi North 8.1 mph - N/A   Scattered Clouds
9:53 PM 80.1 °F 83.6 °F 71.1 °F 74% 29.96 in 10.0 mi Calm Calm - N/A   Scattered Clouds
10:53 PM 79.0 °F - 71.1 °F 77% 29.95 in 10.0 mi Calm Calm - N/A   Scattered Clouds
11:53 PM 75.9 °F - 72.0 °F 87% 29.96 in 10.0 mi West 4.6 mph - N/A   Mostly Cloudy